Wind_Speed
27 25 22 21 20 21 24 27 29 31 33 33 32 31 31 30 31 30 33 34 34 35 36 35 34 35 33 32 32 33 35 37 38 39 41 42 43 43 44 45 46 47 49
29 28 26 24 23 23 26 28 31 33 35 35 35 33 33 32 30 29 29 31 33 34 34 34 34 33 33 33 34 35 37 38 38 40 41 42 44 45 46 47 48 50 52
31 31 29 27 26 26 28 30 33 36 37 37 36 36 35 33 30 29 28 28 29 31 32 32 33 34 35 37 37 38 39 40 41 42 43 44 45 47 49 50 52 54 57
33 33 32 31 30 30 31 34 37 38 40 39 38 38 37 36 32 28 27 26 27 28 30 31 34 35 37 38 40 41 43 44 45 45 47 48 49 51 53 54 57 59 62
36 35 34 34 34 35 36 38 40 42 42 41 41 39 39 36 32 28 27 26 27 28 30 34 36 37 40 42 44 45 47 48 49 51 52 53 55 56 58 59 61 63 65
38 37 36 36 37 39 40 42 43 44 43 43 43 40 39 36 31 29 29 27 28 30 32 36 39 41 44 46 48 50 51 53 54 56 57 59 61 62 63 64 63 63 64
38 38 37 38 39 41 42 42 43 43 43 45 44 41 37 33 30 30 29 29 31 34 36 39 43 45 48 51 53 55 56 58 59 61 63 64 66 67 67 67 66 64 62
35 35 36 36 36 36 36 37 38 40 40 41 40 37 35 33 32 31 31 32 34 37 40 44 47 49 52 55 57 59 60 62 64 66 68 69 70 70 69 67 67 65 64
31 30 30 30 30 31 32 34 36 38 38 38 38 38 37 35 33 33 35 36 38 41 45 47 51 54 56 59 62 63 65 67 69 70 71 71 70 69 67 66 66 66 64
30 30 29 29 29 30 32 34 36 37 39 41 41 40 38 37 36 37 38 40 43 46 49 52 56 58 61 64 66 67 69 71 71 71 70 69 67 66 66 66 65 66 65
28 28 28 29 30 32 34 37 39 41 43 44 42 42 40 40 39 40 42 45 47 51 54 57 60 62 65 67 69 70 71 71 70 69 67 66 65 64 63 63 64 65 65
28 28 29 31 33 36 38 41 43 44 46 44 42 41 41 40 42 43 46 49 52 56 58 61 63 65 67 69 70 70 69 68 66 65 65 64 62 62 63 63 64 65 66
30 30 32 34 36 39 41 43 45 46 45 43 43 42 41 43 45 48 50 53 55 58 60 62 64 66 67 68 68 67 65 64 63 62 61 61 61 61 62 63 64 65 65
33 34 35 38 40 42 43 44 45 45 44 43 44 44 46 48 49 51 53 55 57 59 61 63 64 65 65 64 64 63 62 61 60 60 60 60 61 61 62 62 62 62 59
37 38 39 41 43 44 45 45 44 45 46 47 47 48 49 50 51 52 53 55 57 59 60 61 61 61 60 60 60 59 58 58 58 58 59 60 60 61 60 59 57 53 48
40 41 42 43 43 44 44 45 47 49 50 50 50 50 50 50 50 51 53 54 55 56 57 57 57 57 57 56 56 55 56 56 56 57 58 58 57 56 54 51 47 42 36
40 41 43 44 45 46 49 51 52 52 51 50 50 49 49 49 50 51 52 53 53 53 53 53 53 52 53 54 54 54 54 54 54 54 53 52 51 48 43 38 34 30 25
42 43 44 45 47 49 50 50 51 51 51 50 49 48 48 48 48 49 50 50 49 49 49 49 50 51 51 51 51 52 52 52 51 48 46 44 40 36 31 27 24 21 19
40 42 44 46 48 49 50 51 51 50 49 47 46 46 45 46 46 47 47 47 46 47 47 48 48 49 49 49 49 49 47 46 43 41 38 33 28 25 21 18 16 15 15
43 45 47 49 50 50 50 49 48 46 45 44 43 43 43 43 44 44 44 44 45 46 46 46 47 47 47 47 45 43 40 38 36 33 29 24 19 15 13 12 12 13 15
44 45 46 46 46 45 45 44 43 42 42 42 42 41 41 41 42 42 43 44 44 44 45 45 45 45 43 41 38 35 33 31 28 25 21 16 13 11 11 12 12 14 16
40 41 41 42 42 41 41 41 40 40 39 39 38 39 39 40 40 41 42 42 43 43 43 43 41 39 36 33 31 29 27 25 22 18 14 10 9 10 11 12 13 15 16
38 38 39 39 39 38 38 37 37 36 36 36 37 37 38 38 39 40 41 41 41 40 39 37 35 32 30 28 27 25 23 19 16 11 8 7 8 10 11 12 13 15 17
35 35 35 35 34 33 32 32 32 32 33 34 35 36 37 38 39 39 39 38 37 35 33 31 29 28 27 25 24 21 17 12 8 5 4 5 7 9 11 11 13 15 16
30 29 28 27 26 26 27 28 29 30 31 33 35 36 37 37 37 36 34 32 30 29 28 27 25 24 23 21 18 15 10 4 2 0 2 5 7 9 10 11 13 15 15
23 22 21 21 22 23 24 26 27 29 32 33 34 34 33 32 31 30 28 27 26 25 24 22 20 19 17 15 11 6 2 4 4 4 4 6 7 8 10 12 14 15 15
Wind_Direction
262 262 267 273 282 291 298 302 304 306 305 302 300 299 294 291 289 282 276 272 274 277 276 279 281 282 282 285 290 295 298 300 301 301 301 300 299 299 297 295 293 292 291
260 263 267 272 279 286 292 296 300 300 300 297 294 294 293 291 290 290 285 277 275 278 278 280 280 283 287 290 295 301 303 304 304 303 301 300 299 299 297 296 294 292 291
262 263 265 269 275 281 287 291 295 295 295 293 289 289 289 290 293 294 289 283 280 279 280 283 289 292 294 300 303 307 307 305 304 303 301 300 299 297 296 295 294 292 291
262 263 266 270 274 277 281 285 288 289 289 287 285 287 287 289 296 297 295 287 285 286 288 294 297 297 301 304 306 308 307 305 303 301 300 299 298 297 296 295 294 293 292
263 264 267 271 274 277 280 282 284 285 285 282 283 284 284 290 301 299 297 291 290 295 295 298 298 302 304 305 306 306 305 304 302 301 300 299 299 298 297 296 294 294 293
265 268 270 272 275 277 279 281 282 283 283 281 282 285 286 295 299 299 298 294 295 297 297 299 301 303 304 304 304 303 303 302 302 301 300 300 300 299 298 297 295 293 292
265 267 269 271 272 274 276 278 280 282 282 284 285 287 292 299 298 295 294 294 295 295 297 299 301 302 302 302 302 302 301 301 301 301 301 301 300 299 298 297 296 294 292
265 266 267 268 269 271 273 276 278 281 284 289 291 293 299 300 297 294 293 293 293 295 298 299 300 301 300 300 300 301 300 300 300 301 301 301 301 300 298 297 296 294 292
266 266 267 268 270 273 276 278 281 284 289 295 299 301 301 299 296 293 293 294 294 296 298 299 299 299 299 299 300 300 299 300 300 301 301 301 300 300 299 297 296 295 293
265 266 269 273 276 278 281 285 288 292 295 298 299 302 302 299 297 293 294 295 295 296 297 297 297 297 298 298 299 299 299 300 300 301 301 301 300 299 298 297 296 295 294
266 270 275 279 282 285 289 291 292 295 296 296 297 299 299 297 296 294 295 294 295 296 297 297 297 297 297 298 298 299 299 300 300 301 301 300 299 299 298 297 296 295 294
268 273 278 283 286 289 292 293 294 295 296 295 295 296 296 295 295 295 295 295 295 295 295 296 296 296 296 297 297 298 299 300 300 301 301 300 300 299 298 297 296 296 295
270 276 282 286 289 291 292 294 294 295 294 292 293 294 295 296 296 296 296 295 294 294 295 295 295 295 296 297 298 299 300 300 301 301 301 300 300 299 298 297 296 296 296
272 278 284 287 290 292 293 294 293 293 293 292 293 294 295 296 296 296 296 295 294 294 294 294 295 295 296 298 299 300 301 302 302 302 301 300 300 299 298 298 298 298 299
275 280 285 289 291 292 292 292 292 292 294 296 296 296 296 296 295 294 294 293 293 293 294 294 295 296 297 298 300 301 301 302 302 302 301 300 300 299 300 300 300 301 303
279 283 286 288 289 290 290 290 292 295 297 299 298 297 296 295 293 293 293 293 293 293 294 294 295 297 298 299 300 301 302 302 302 301 301 301 302 302 303 304 304 305 306
282 284 285 286 287 288 290 292 295 297 298 298 298 297 295 293 293 293 294 294 294 294 294 295 296 298 299 299 300 301 301 301 301 301 302 303 304 306 306 307 307 308 311
282 282 284 285 288 290 292 294 296 297 298 297 296 295 294 293 294 294 294 294 294 294 295 296 297 298 299 299 300 300 300 301 302 303 305 307 308 308 308 308 308 311 316
279 281 284 287 290 292 295 296 296 297 296 295 294 293 293 294 294 294 294 294 294 295 296 297 297 298 298 299 299 300 301 303 304 306 308 310 310 309 310 312 314 318 322
280 284 287 290 292 293 295 295 295 294 294 293 293 293 294 293 293 293 293 294 295 295 296 297 297 298 298 299 300 301 303 305 308 310 312 314 314 316 321 326 329 331 331
285 287 289 290 292 293 293 293 293 292 292 293 293 293 293 292 292 293 294 294 295 296 296 297 297 298 298 299 300 301 304 306 308 310 313 316 323 331 338 339 338 337 335
286 287 289 290 291 291 291 291 291 291 292 292 292 292 292 292 293 294 295 295 296 296 297 297 297 298 299 299 301 303 305 306 307 309 312 321 333 342 345 344 342 342 343
285 287 288 289 290 290 290 290 291 291 291 292 293 294 294 295 295 295 296 296 297 297 298 298 299 299 299 300 301 302 303 303 303 304 312 330 344 348 347 347 348 349 351
286 287 289 289 290 290 290 291 292 292 294 295 296 297 297 297 297 297 297 298 299 299 300 300 300 300 300 300 301 301 301 297 291 292 324 350 355 355 353 354 358 0 6
288 289 291 293 294 294 295 296 296 297 298 299 299 299 299 298 298 299 300 301 301 302 302 302 302 303 303 302 300 300 297 281 231 139 28 12 7 4 5 8 10 16 27
291 294 297 299 300 301 302 303 303 303 303 303 302 302 302 302 302 303 303 303 304 305 306 306 307 307 307 304 301 296 227 147 127 98 56 31 20 19 21 22 25 34 37
Height
5862 5863 5864 5864 5865 5864 5863 5861 5859 5857 5854 5851 5849 5846 5843 5840 5837 5834 5833 5831 5830 5829 5827 5826 5825 5823 5822 5822 5821 5819 5818 5816 5814 5811 5808 5804 5801 5799 5796 5792 5789 5786 5783
5855 5857 5858 5859 5859 5859 5858 5856 5854 5851 5848 5845 5842 5839 5835 5832 5830 5827 5826 5824 5822 5820 5819 5818 5817 5816 5815 5813 5812 5810 5809 5807 5804 5802 5798 5795 5792 5789 5785 5782 5778 5774 5771
5849 5850 5851 5852 5853 5853 5852 5850 5848 5845 5842 5839 5836 5832 5828 5824 5822 5821 5819 5817 5815 5813 5811 5810 5809 5808 5806 5805 5803 5801 5799 5797 5795 5792 5789 5785 5782 5778 5775 5771 5766 5762 5758
5841 5843 5845 5846 5846 5847 5846 5844 5841 5838 5835 5831 5827 5823 5820 5816 5815 5814 5812 5810 5808 5806 5804 5803 5802 5800 5798 5796 5794 5792 5790 5787 5784 5781 5778 5774 5770 5767 5763 5759 5754 5748 5743
5835 5837 5838 5839 5839 5839 5839 5837 5834 5830 5827 5823 5818 5814 5812 5809 5807 5806 5804 5802 5800 5799 5797 5796 5795 5792 5790 5787 5785 5782 5780 5777 5773 5770 5766 5762 5758 5753 5749 5746 5741 5734 5727
5828 5829 5831 5832 5832 5832 5830 5828 5825 5822 5818 5814 5810 5806 5803 5801 5800 5798 5796 5794 5793 5792 5790 5788 5786 5784 5781 5778 5775 5772 5769 5765 5762 5757 5753 5749 5744 5738 5733 5729 5725 5720 5714
5820 5822 5823 5824 5824 5824 5822 5820 5817 5814 5810 5805 5801 5797 5794 5793 5791 5790 5788 5787 5786 5785 5783 5781 5778 5775 5772 5768 5765 5761 5757 5753 5749 5744 5739 5733 5727 5722 5716 5711 5707 5703 5699
5814 5815 5816 5816 5816 5815 5814 5812 5809 5805 5802 5799 5794 5789 5786 5785 5784 5782 5782 5780 5779 5777 5775 5772 5769 5765 5762 5758 5754 5750 5745 5740 5735 5729 5723 5717 5710 5704 5698 5692 5687 5684 5681
5808 5809 5809 5809 5808 5808 5806 5804 5801 5797 5794 5791 5787 5783 5781 5779 5778 5776 5775 5773 5771 5769 5766 5762 5759 5755 5751 5746 5742 5737 5732 5726 5720 5714 5707 5700 5693 5686 5680 5674 5667 5663 5661
5802 5802 5802 5802 5801 5800 5798 5796 5793 5790 5787 5784 5781 5777 5775 5773 5772 5770 5767 5765 5762 5759 5755 5751 5747 5743 5738 5734 5729 5723 5717 5711 5705 5698 5691 5684 5677 5670 5663 5657 5650 5643 5639
5796 5795 5795 5794 5793 5791 5790 5787 5785 5782 5779 5776 5773 5770 5768 5765 5763 5761 5758 5755 5751 5747 5743 5739 5735 5730 5725 5719 5714 5708 5702 5696 5689 5682 5676 5669 5662 5655 5647 5640 5633 5626 5620
5788 5788 5787 5786 5785 5783 5781 5779 5776 5773 5770 5767 5764 5761 5759 5756 5753 5751 5747 5744 5739 5735 5731 5726 5721 5716 5711 5705 5699 5693 5687 5680 5674 5667 5660 5653 5646 5639 5631 5624 5617 5609 5602
5780 5780 5779 5778 5776 5774 5772 5770 5767 5764 5761 5758 5755 5752 5749 5746 5743 5739 5736 5732 5727 5722 5717 5712 5707 5702 5696 5690 5684 5678 5671 5665 5659 5652 5645 5638 5631 5623 5616 5608 5601 5593 5586
5771 5770 5769 5768 5767 5765 5762 5760 5757 5754 5752 5749 5746 5742 5739 5735 5731 5727 5723 5719 5714 5709 5704 5698 5692 5687 5681 5675 5669 5663 5657 5650 5644 5637 5630 5623 5616 5609 5601 5593 5585 5578 5571
5761 5760 5759 5758 5756 5754 5752 5750 5747 5744 5741 5738 5735 5731 5727 5723 5719 5714 5710 5705 5700 5695 5689 5684 5678 5672 5667 5661 5655 5649 5643 5637 5630 5623 5616 5608 5601 5594 5586 5579 5571 5564 5558
5750 5750 5749 5747 5746 5743 5741 5739 5736 5733 5729 5726 5722 5718 5714 5709 5705 5700 5696 5691 5686 5681 5675 5670 5664 5659 5653 5648 5642 5636 5630 5624 5618 5611 5603 5594 5587 5580 5573 5565 5558 5553 5548
5739 5739 5738 5736 5734 5732 5730 5727 5724 5720 5717 5713 5708 5704 5700 5695 5691 5686 5682 5677 5672 5667 5661 5656 5651 5646 5641 5636 5630 5624 5618 5612 5606 5599 5591 5583 5576 5569 5563 5556 5550 5545 5541
5729 5728 5726 5724 5722 5719 5716 5713 5710 5707 5703 5699 5695 5691 5686 5682 5677 5673 5668 5663 5658 5654 5649 5644 5639 5634 5629 5624 5618 5612 5606 5600 5594 5588 5581 5574 5567 5561 5556 5551 5546 5542 5538
5718 5716 5714 5712 5710 5707 5704 5701 5697 5693 5690 5686 5682 5677 5673 5669 5664 5660 5655 5650 5646 5642 5637 5632 5627 5622 5617 5612 5607 5601 5595 5589 5583 5578 5572 5567 5561 5556 5551 5547 5543 5540 5536
5707 5705 5703 5701 5698 5695 5691 5688 5684 5680 5676 5672 5668 5664 5660 5656 5651 5647 5643 5638 5634 5630 5625 5620 5615 5610 5605 5600 5595 5590 5585 5580 5575 5571 5566 5561 5557 5552 5548 5545 5542 5538 5534
5696 5694 5691 5689 5686 5683 5679 5676 5672 5668 5664 5660 5656 5652 5648 5644 5640 5635 5631 5626 5622 5618 5613 5609 5604 5599 5594 5590 5586 5582 5578 5574 5570 5565 5561 5557 5554 5550 5547 5544 5541 5537 5533
5685 5683 5681 5678 5675 5672 5668 5664 5661 5657 5653 5649 5645 5641 5637 5632 5628 5623 5619 5615 5610 5606 5601 5597 5593 5588 5584 5581 5577 5574 5571 5567 5564 5561 5558 5555 5552 5550 5546 5543 5540 5536 5532
5676 5674 5671 5668 5665 5661 5658 5654 5650 5646 5642 5638 5634 5630 5625 5621 5617 5612 5608 5603 5599 5594 5590 5586 5582 5579 5575 5572 5570 5567 5564 5562 5560 5558 5556 5554 5551 5549 5546 5543 5539 5535 5530
5667 5664 5661 5658 5655 5652 5648 5645 5641 5637 5632 5628 5623 5619 5615 5610 5605 5601 5597 5592 5588 5584 5580 5577 5574 5570 5568 5565 5562 5560 5559 5557 5556 5555 5554 5553 5551 5549 5546 5543 5539 5535 5530
5658 5656 5653 5650 5647 5644 5640 5636 5632 5628 5623 5618 5614 5609 5604 5599 5595 5591 5587 5583 5579 5576 5573 5569 5566 5563 5560 5558 5556 5554 5554 5554 5554 5554 5554 5552 5551 5549 5546 5543 5539 5535 5531
5651 5649 5647 5644 5641 5637 5633 5629 5625 5620 5615 5609 5604 5599 5595 5590 5586 5583 5579 5575 5572 5569 5565 5562 5559 5556 5554 5552 5551 5551 5551 5552 5553 5554 5553 5552 5551 5549 5546 5543 5540 5537 5533